Location: Asheville, NC
(35.6000°N, 82.5500°W)
Time: 02:37:32
(UTC-04:00)

Vanguard 1 - Pass Details

Date: 17 March 2018
Orbit: 650 x 3833 km, 34.3° (Epoch: 20 June)

Event Time Altitude Azimuth Distance (km) Brightness Sun altitude
Rises 06:50:03 0° 206° (SSW) 5,913 13.7 -10.6°
Reaches altitude 10° 06:53:50 10° 199° (SSW) 5,296 13.6 -9.8°
Maximum altitude 07:09:11 39° 136° (SE) 4,492 13.8 -6.7°
Drops below altitude 10° 07:29:22 10° 78° (ENE) 6,922 16.2 -2.6°
Sets 07:35:10 0° 72° (ENE) 7,841 16.4 -1.4°
